www.pogodaiklimat.ru

Погода и климат >> Архив погоды >> Россия >> Крым >> Симферополь


АРХИВ ПОГОДЫ в Симферополе

Время (UTC), дата Ветер
(напр.,м/с)
 
Видим.   Явления Облачность Т
(С)
Тd
(С)
f
(%)
Тe
(С)
Тes
(С)
Комфортность P
(гПа)
Po
(гПа)
Тmin
(С)
Tmax
(С)
R
(мм)
R24
(мм)
S
(см)
21 19.03 Ю 2 10 км ясно +5.1 +0.9 74 +3 +3 тепло 1023.3 1000.9
00 20.03 штиль 0 600 м туман ?/? +4.9 +4.6 98 +4 +4 тепло 1023.1 1000.7
03 20.03 В 2 1900 м дымка {туман} 10/10 90 м
[St]
+4.7 +4.6 99 +2 +2 тепло 1023.6 1001.2 +3.4
06 20.03 В 5 400 м туман ?/? +3.8 +3.7 99 -2 -2 по сезону 1024.5 1002.0 +2.8
09 20.03 В 9-11
{11}
10 км {туман} 9/9 120 м
[St]
+7.5 +4.6 82 +2 +2 по сезону 1024.1 1001.9
12 20.03 СВ 9-12
{12}
10 км {туман} 9/9 180 м
[St]
+8.1 +4.7 79 +3 +3 по сезону 1023.8 1001.6
15 20.03 СВ 8-12
{12}
10 км 3/3 300 м
[St]
+8.0 +4.2 77 +3 +3 по сезону 1024.3 1002.1
18 20.03 В 3
{12}
10 км ясно +4.1 +3.1 93 0 0 по сезону 1026.1 1003.6 +8.9
21 20.03 В 3 5000 м дымка ясно +2.4 +2.0 97 -2 -2 по сезону 1026.6 1003.9
00 21.03 В 2 5000 м в посл. час туман 3/3 300 м
[St]
+2.6 +2.5 99 -1 -1 по сезону 1027.2 1004.5
03 21.03 В 3 5000 м дымка 10/10 240 м
[St]
+2.6 +2.3 98 -2 -2 по сезону 1027.5 1004.8 +0.7
06 21.03 СВ 5 6000 м дымка 10/10 180 м
[St]
+3.8 +3.2 96 -1 -1 по сезону 1028.9 1006.3 +0.7
09 21.03 В 4 10 км 9/9 800 м
[Sc]
+7.3 +4.4 82 +4 +5 по сезону 1029.0 1006.7
12 21.03 С 5 10 км 5/5 1440 м
[Sc]
+11.7 -1.1 41 +10 +12 тепло 1027.5 1005.5
15 21.03 СЗ 6 10 км 3/0
[Ac trans]
+10.1 -3.9 37 +7 +8 тепло 1027.0 1004.9
18 21.03 З 3 10 км 10/0
[Ci fib]
+4.9 -2.4 59 +2 +2 по сезону 1028.8 1006.2 +12.0
21 21.03 Ю 4 10 км 10/0
[Ac trans Ci fib]
+2.9 -0.7 77 -2 -2 по сезону 1028.8 1006.1
00 22.03 ЮЗ 4 10 км 10/0
[Ac und]
+4.7 +1.0 77 +1 +1 по сезону 1028.2 1005.7
03 22.03 Ю 3 10 км 9/0
[Ac trans]
+2.3 +0.2 86 -2 -2 по сезону 1027.6 1004.9 +1.6
06 22.03 ЮЗ 4 10 км 10/0
[Ac und]
+6.9 +3.0 76 +3 +4 по сезону 1027.6 1005.2 +1.6
09 22.03 З 4 10 км 10/3 1500 м
[Sc Ac und]
+10.2 +1.8 56 +8 +10 тепло 1026.6 1004.5
12 22.03 З 5
{10}
10 км 10/4 1080 м
[Sc Ci sp]
+10.9 +2.0 54 +8 +11 по сезону 1024.6 1002.6
15 22.03 З 7 10 км 10/0
[Ac lent Ci sp]
+8.4 +2.2 65 +4 +4 по сезону 1023.2 1001.1
18 22.03 ЮЗ 5 10 км 10/10 1470 м
[Sc]
+6.0 +3.7 85 +2 +2 по сезону 1022.8 1000.5 +11.5
21 22.03 ЮЗ 6 10 км слаб. ливневой дождь 10/10 1170 м
[Cb calv]
+5.9 +5.0 94 +1 +1 по сезону 1021.3 999.0
00 23.03 СВ 4 10 км в посл. час морось {ливн. осадки, дождь} 10/10 1440 м
[Sc]
+5.9 +3.2 83 +2 +2 по сезону 1020.2 997.9
03 23.03 Ю 2 10 км {ливн. осадки} ясно +3.5 +0.5 81 +1 +1 по сезону 1018.7 996.3 +3.2 1
06 23.03 С 4 10 км {ливн. осадки} ясно +5.2 -0.4 67 +1 +4 по сезону 1019.2 996.9 +1.5 1
09 23.03 СЗ 8-15
{12}
10 км 8/8 1500 м
[Sc]
+7.8 -6.3 36 +4 +4 по сезону 1017.9 995.8
12 23.03 СЗ 8-13
{15}
10 км 9/5 1500 м
[Cb calv Ac trans]
+5.5 -6.4 42 +1 +1 холодно 1018.8 996.5
15 23.03 С 7-11
{15}
10 км 10/10 1440 м
[Cb calv]
+4.1 -1.9 65 -1 -1 прохладно 1019.9 997.5
18 23.03 С 2
{13}
10 км 10/3 600 м
[Cb calv Ac und]
+2.7 -0.9 77 -0 -0 по сезону 1021.4 998.8 +8.5
21 23.03 С 4 10 км 10/4 1500 м
[Sc Ac und]
+3.1 -2.4 67 -1 -1 по сезону 1021.6 999.1
00 24.03 СЗ 3 10 км 10/10 1500 м
[Sc]
+2.5 -1.8 73 -1 -1 по сезону 1021.2 998.6
03 24.03 З 1 10 км 10/10 1500 м
[Sc]
+1.9 -1.0 81 0 0 по сезону 1021.3 998.7 +1.8
06 24.03 С 3 10 км 10/10 1260 м
[Sc]
+3.4 -0.4 76 -0 -0 по сезону 1021.4 998.9 +1.8
09 24.03 С 5 10 км 10/10 1500 м
[Sc]
+5.7 -5.6 44 +2 +2 по сезону 1021.0 998.7
12 24.03 С 4 10 км 10/10 1500 м
[Sc]
+6.7 -4.4 45 +4 +4 прохладно 1019.9 997.7
15 24.03 З 6 10 км 5/5 1230 м
[Sc]
+6.3 -1.8 56 +2 +2 по сезону 1019.3 997.1
18 24.03 Ю 3 10 км ясно +0.4 -2.8 79 -4 -4 прохладно 1020.6 997.9 +7.8
21 24.03 Ю 4 10 км 8/0
[Ac trans]
+2.4 -1.2 77 -2 -2 по сезону 1019.9 997.3
00 25.03 ЮЗ 4 10 км 10/0
[Ac und]
+3.2 -1.2 73 -1 -1 по сезону 1019.3 996.8
03 25.03 Ю 4 10 км 3/0
[Ac trans]
+0.8 -1.4 85 -4 -4 прохладно 1017.8 995.2 +0.2
06 25.03 ЮЗ 7 10 км ясно +6.2 +1.1 70 +1 +2 по сезону 1016.5 994.3 +0.2
09 25.03 ЮЗ 7-10
{11}
10 км ясно +10.2 +2.3 58 +7 +10 по сезону 1015.2 993.4
12 25.03 ЮЗ 9-12
{12}
10 км 1/0
[Ci fib]
+11.4 +1.6 51 +8 +9 по сезону 1014.1 992.4
15 25.03 ЮЗ 8-10
{13}
10 км 1/0
[Ci fib]
+9.0 +0.9 57 +5 +5 по сезону 1013.1 991.2
18 25.03 Ю 3
{10}
10 км 4/0
[Ci fib]
+2.8 -0.5 79 -1 -1 по сезону 1013.5 991.1 +11.7
21 25.03 Ю 4 10 км 4/0
[Ci fib]
+4.8 -1.4 64 +1 +1 по сезону 1012.7 990.5
00 26.03 З 1 10 км 3/0
[Ci fib]
+2.6 -1.6 74 +1 +1 по сезону 1012.7 990.3
03 26.03 В 6 10 км 4/0
[Ac trans]
+4.7 -0.3 70 -0 -0 по сезону 1012.3 990.1 +1.0
06 26.03 СЗ 1 10 км ясно +7.4 +0.1 60 +7 +12 тепло 1013.4 991.4 +1.0
09 26.03 СЗ 3 10 км 3/0
[Ci fib]
+14.2 +0.4 39 +14 +23 тепло 1013.0 991.5
12 26.03 З 7
{11}
10 км 4/0
[Ci fib]
+11.5 +1.7 51 +9 +11 по сезону 1013.7 992.0
15 26.03 З 5
{10}
10 км 3/3 300 м
[St]
+8.4 +4.2 75 +5 +5 по сезону 1014.4 992.5
18 26.03 Ю 3 10 км 1/0
[Ac trans]
+3.9 +3.3 96 -0 -0 по сезону 1015.9 993.6 +15.5

 

Местоположение метеостанции Симферополь (Крым, Россия): широта 45.03 долгота 33.97 высота над уровнем моря 181 м.

В архиве по умолчанию представлена погода в Симферополе за последнюю неделю. Архивные данные за месяц целиком и за предыдущие месяцы, начиная с января 2011 года, Вы можете получить, выбрав интересующий диапазон дат из раскрывающегося списка и нажав кнопку "Ввод!".


*Определитесь, кто Вы:
робот инопланетянин человек

Внимание! Время в таблицах - всемирное. Для получения местного времени необходимо прибавить поправку, которая равна 3 ч.

Смотрите также архив погоды в соседних городах и на ближайших метеорологических станциях:

Погода в Симферополе город (Крым, Россия) (15 км)
Погода в Почтовом (Крым, Россия) (22 км)
Погода на Ангарском Перевале (Крым, Россия) (43 км)
Погода в Белогорске (Крым, Россия) (50 км)
Погода в Евпатории (Крым, Россия) (50 км)
Погода в Алуште (Крым, Россия) (52 км)
Погода в Севастополе (город Севастополь, Россия) (57 км)
Погода в Клепинино (Крым, Россия) (58 км)
Погода в Никитском саду (Крым, Россия) (61 км)
Погода на Ай-Петри (Крым, Россия) (63 км)

Пояснения к столбцам:

Ветер - указаны скорость ветра в м/с - средняя за 10 мин, порывы в срок и между сроками (в фигурных скобках) и направление, откуда дует ветер: С - северный, СВ - северо-восточный, В - восточный, ЮВ - юго-восточный, Ю - южный, ЮЗ - юго-западный, З - западный, СЗ - северо-западный.
Видимость - горизонтальная дальность видимости в метрах или километрах. При видимости от 1 до 10 км при отсутствии осадков обычно наблюдается дымка, при ухудшении видимости до 1 км и менее - туман. В сухую погоду видимость может ухудшаться дымом, пылью или мглою.
Явления - указаны атмосферные явления, наблюдавшиеся в срок или в последний час перед сроком; фигурными скобками обозначены явления, наблюдавшиеся между сроками (за 1-3 часа до срока); квадратными скобками обозначены град или гололедные отложения с указанием их диаметра в мм.
Облачность - указаны через наклонную черту общая и нижняя облачность в баллах и высота нижней границы облаков в метрах; квадратными скобками обозначены формы облаков: Ci - перистые, Cs - перисто-слоистые, Cc - перисто-кучевые, Ac - высококучевые, As - высокослоистые, Sc - слоисто-кучевые, Ns - слоисто-дождевые, Cu - кучевые, Cb - кучево-дождевые. Подробнее классификацию облаков см. в Атласе облаков (PDF).
T - Температура воздуха - температура, измеренная на высоте 2 м над землей.
Td - Температура точки росы - температура, при понижении до которой содержащийся в воздухе водяной пар достигнет насыщения.
f - Относительная влажность воздуха - влажноcть воздуха, измеренная на высоте 2 м над землей.
Te - Эффективная температура - температура, которую ощущает одетый по сезону человек в тени. Характеристика душности погоды. При расчете учитывается влияние влажности воздуха и скорости ветра на теплоощущения человека.
Tes - Эффективная температура на солнце - температура, которую ощущает человек, с поправкой на солнечный нагрев. Характеристика знойности погоды. Зависит от высоты солнца над горизонтом, облачности и скорости ветра. Ночью, в пасмурную погоду, а также при ветре 12 м/с и более поправка равна нулю.
P - Атмосферное давление - приведенное к уровню моря атмосферное давление.
Po - Атмосферное давление - измеренное на уровне метеостанции атмосферное давление.
Tmin - Минимальная температура - минимум температуры воздуха на высоте 2 м над землей.
Tmax - Максимальная температура - максимум температуры воздуха на высоте 2 м над землей.
R - Количество осадков - Количество выпавших осадков за период времени, мм. При наведении курсора мыши на число - период времени, за который выпало указанное количество осадков.
R24 - Количество осадков - Количество выпавших осадков за 24 часа, мм.
S - Снежный покров - Высота снежного покрова, см. При наведении курсора мыши на число - состояние снежного покрова и степень покрытия местности в баллах.